{"data":{"norad_id":67482,"epoch":"2026-05-25T03:38:47.503680Z","epoch_age_seconds":68679,"freshness":"FRESH","line1":"1 67482U 25313BE  26145.15193870  .00116753  00000+0  25761-2 0  9998","line2":"2 67482  97.3914 222.2155 0005301 105.2151 254.9683 15.43436079 19712","mean_motion":15.43436079,"eccentricity":0.0005301,"inclination_deg":97.3914,"raan_deg":222.2155,"arg_perigee_deg":105.2151,"mean_anomaly_deg":254.9683,"bstar":0.0025761,"rev_number":1971,"period_min":93.298324406993,"perigee_km":432.3650623025,"apogee_km":439.58938620305,"semimajor_km":6814.1142242528,"source":"CELESTRAK","updated_at":"2026-05-25T13:38:07.039038Z"}}